sat.trackr.live / text

‹ back to catalog

DISKSAT B

NORAD 67220 · 2025-305B

PAYLOAD ACTIVE UNKNOWN

§ Identity

Operator
Country
US
Launch date
2025-12-18
Launch site
WLPIS
Launch vehicle
Mass (kg)
RCS (m²)

External: N2YO · Heavens-Above · Gunter

§ Orbital elements

Epoch: 2026-09-19T19:52:50.948544Z

Period
95.40 min
Inclination
45.0024°
Eccentricity
0.0005519
Mean motion
15.09405552 rev/d
Perigee alt
534.2 km
Apogee alt
541.8 km
Semi-major
6,916.2 km
B*
2.6195e-4
RAAN
301.5004°
Arg perigee
324.2474°
Mean anomaly
35.8032°
Rev number
4,161

§ Raw data

DISKSAT B1 67220U 25305B   26262.82836746  .00004010  00000+0  26195-3 0  99942 67220  45.0024 301.5004 0005519 324.2474  35.8032 15.09405552 41612

JSON: /api/v1/satellites/67220 · /tle

For live sub-satellite position, see the globe view (requires WebGL).

§ Visibility from observer

Set your observer location to see the next 7 days of passes ≥ 10°. The values pass through the URL so the page stays shareable.

No JS? Fill the form by hand. The geolocation button needs JavaScript.